Time,TemperatureF,DewpointF,PressureIn,WindDirection,WindDirectionDegrees,WindSpeedMPH,WindSpeedGustMPH,Humidity,HourlyPrecipIn,Conditions,Clouds,dailyrainin,SoftwareType,DateUTC
2013-10-30 00:00:00,73.1,69.3,30.00,SE,133,0.0,1.0,88,0.00,,SKC,0.00,VWS V14.01,2013-10-30 05:00:00,
2013-10-30 00:01:00,73.1,69.3,29.99,SE,132,0.0,2.0,88,0.00,,SKC,0.00,VWS V14.01,2013-10-30 05:01:00,
2013-10-30 00:06:00,73.1,69.3,29.99,SE,132,0.0,0.0,88,0.00,,SKC,0.00,VWS V14.01,2013-10-30 05:06:00,
2013-10-30 00:10:00,73.1,69.3,29.99,SE,132,0.0,2.0,88,0.00,,SKC,0.00,VWS V14.01,2013-10-30 05:10:00,
2013-10-30 00:11:00,73.1,69.3,29.99,SE,132,0.0,1.0,88,0.00,,SKC,0.00,VWS V14.01,2013-10-30 05:11:00,
2013-10-30 00:16:00,73.1,69.7,29.99,SE,132,0.0,0.0,89,0.00,,SKC,0.00,VWS V14.01,2013-10-30 05:16:00,
2013-10-30 00:20:00,73.1,69.7,29.99,SE,132,0.0,1.0,89,0.00,,SKC,0.00,VWS V14.01,2013-10-30 05:20:00,
2013-10-30 00:21:00,73.1,69.7,29.98,SE,132,0.0,1.0,89,0.00,,SKC,0.00,VWS V14.01,2013-10-30 05:21:00,
2013-10-30 00:26:00,73.1,69.7,29.98,SE,132,0.0,0.0,89,0.00,,SKC,0.00,VWS V14.01,2013-10-30 05:26:00,
2013-10-30 00:30:00,73.1,69.7,29.98,SE,132,0.0,3.0,89,0.00,,SKC,0.00,VWS V14.01,2013-10-30 05:30:00,
2013-10-30 00:31:00,73.1,69.7,29.98,SE,131,0.0,2.0,89,0.00,,SKC,0.00,VWS V14.01,2013-10-30 05:31:00,
2013-10-30 00:36:00,73.1,69.7,29.98,SE,131,0.0,0.0,89,0.00,,SKC,0.00,VWS V14.01,2013-10-30 05:36:00,
2013-10-30 00:40:00,73.1,69.7,29.98,SE,131,0.0,2.0,89,0.00,,SKC,0.00,VWS V14.01,2013-10-30 05:40:00,
2013-10-30 00:41:00,73.1,70.0,29.98,SE,131,0.0,1.0,90,0.00,,SKC,0.00,VWS V14.01,2013-10-30 05:41:00,
2013-10-30 00:46:00,73.1,70.0,29.99,SE,131,0.0,0.0,90,0.00,,SKC,0.00,VWS V14.01,2013-10-30 05:46:00,
2013-10-30 00:50:00,73.1,70.0,29.98,SE,131,0.0,1.0,90,0.00,,SKC,0.00,VWS V14.01,2013-10-30 05:50:00,
2013-10-30 00:51:00,73.1,70.0,29.98,SE,132,0.0,2.0,90,0.00,,SKC,0.00,VWS V14.01,2013-10-30 05:51:00,
2013-10-30 00:56:00,73.1,70.0,29.98,SE,132,0.0,0.0,90,0.00,,SKC,0.00,VWS V14.01,2013-10-30 05:56:00,
2013-10-30 01:00:00,73.1,70.0,29.98,SE,132,0.0,2.0,90,0.00,,SKC,0.00,VWS V14.01,2013-10-30 06:00:00,
2013-10-30 01:01:00,73.1,70.0,29.98,SE,132,0.0,1.0,90,0.00,,SKC,0.00,VWS V14.01,2013-10-30 06:01:00,
2013-10-30 01:06:00,73.2,70.1,29.98,SE,132,0.0,0.0,90,0.00,,SKC,0.00,VWS V14.01,2013-10-30 06:06:00,
2013-10-30 01:10:00,73.2,70.1,29.98,SE,132,0.0,1.0,90,0.00,,SKC,0.00,VWS V14.01,2013-10-30 06:10:00,
2013-10-30 01:11:00,73.2,70.1,29.98,SE,132,0.0,0.0,90,0.00,,SKC,0.00,VWS V14.01,2013-10-30 06:11:00,
2013-10-30 01:16:00,73.2,70.1,29.98,SE,131,0.0,0.0,90,0.00,,SKC,0.00,VWS V14.01,2013-10-30 06:16:00,
2013-10-30 01:20:00,73.2,70.1,29.98,SE,131,0.0,1.0,90,0.00,,SKC,0.00,VWS V14.01,2013-10-30 06:20:00,
2013-10-30 01:21:00,73.2,70.1,29.98,SE,131,0.0,1.0,90,0.00,,SKC,0.00,VWS V14.01,2013-10-30 06:21:00,
2013-10-30 01:26:00,73.3,70.5,29.98,SE,130,0.0,0.0,91,0.00,,SKC,0.00,VWS V14.01,2013-10-30 06:26:00,
2013-10-30 01:30:00,73.3,70.5,29.98,SE,130,0.0,3.0,91,0.00,,SKC,0.00,VWS V14.01,2013-10-30 06:30:00,
2013-10-30 01:31:00,73.3,70.5,29.98,SE,130,0.0,0.0,91,0.00,,SKC,0.00,VWS V14.01,2013-10-30 06:31:00,
2013-10-30 01:36:00,73.3,70.5,29.97,SE,130,0.0,0.0,91,0.00,,SKC,0.00,VWS V14.01,2013-10-30 06:36:00,
2013-10-30 01:40:00,73.3,70.5,29.97,SE,130,0.0,1.0,91,0.00,,SKC,0.00,VWS V14.01,2013-10-30 06:40:00,
2013-10-30 01:41:00,73.3,70.5,29.98,SE,131,0.0,2.0,91,0.00,,SKC,0.00,VWS V14.01,2013-10-30 06:41:00,
2013-10-30 01:46:00,73.3,70.5,29.97,SE,131,0.0,0.0,91,0.00,,SKC,0.00,VWS V14.01,2013-10-30 06:46:00,
2013-10-30 01:50:00,73.3,70.5,29.97,SE,131,0.0,3.0,91,0.00,,SKC,0.00,VWS V14.01,2013-10-30 06:50:00,
2013-10-30 01:51:00,73.4,70.6,29.97,SE,131,0.0,0.0,91,0.00,,SKC,0.00,VWS V14.01,2013-10-30 06:51:00,
2013-10-30 01:56:00,73.4,70.6,29.96,SE,131,0.0,0.0,91,0.00,,SKC,0.00,VWS V14.01,2013-10-30 06:56:00,
2013-10-30 02:00:00,73.4,70.6,29.97,SE,131,0.0,0.0,91,0.00,,SKC,0.00,VWS V14.01,2013-10-30 07:00:00,
2013-10-30 02:01:00,73.4,70.6,29.96,SE,131,0.0,2.0,91,0.00,,SKC,0.00,VWS V14.01,2013-10-30 07:01:00,
2013-10-30 02:06:00,73.4,70.6,29.96,SE,130,0.0,0.0,91,0.00,,SKC,0.00,VWS V14.01,2013-10-30 07:06:00,
2013-10-30 02:10:00,73.4,70.6,29.96,SE,131,0.0,2.0,91,0.00,,SKC,0.00,VWS V14.01,2013-10-30 07:10:00,
2013-10-30 02:11:00,73.5,71.0,29.95,SE,130,0.0,3.0,92,0.00,,SKC,0.00,VWS V14.01,2013-10-30 07:11:00,
2013-10-30 02:16:00,73.5,71.0,29.95,SE,130,0.0,0.0,92,0.00,,SKC,0.00,VWS V14.01,2013-10-30 07:16:00,
2013-10-30 02:20:00,73.5,71.0,29.95,SE,130,0.0,3.0,92,0.00,,SKC,0.00,VWS V14.01,2013-10-30 07:20:00,
2013-10-30 02:21:00,73.5,71.0,29.95,SE,130,0.0,2.0,92,0.00,,SKC,0.00,VWS V14.01,2013-10-30 07:21:00,
2013-10-30 02:25:00,73.5,71.0,29.95,SE,130,0.0,0.0,92,0.00,,SKC,0.00,VWS V14.01,2013-10-30 07:25:00,
2013-10-30 02:30:00,73.4,70.9,29.95,SE,130,0.0,0.0,92,0.00,,SKC,0.00,VWS V14.01,2013-10-30 07:30:00,
2013-10-30 02:35:00,73.4,70.9,29.95,SE,130,0.0,0.0,92,0.00,,SKC,0.00,VWS V14.01,2013-10-30 07:35:00,
2013-10-30 02:40:00,73.4,71.3,29.94,SE,130,0.0,0.0,93,0.00,,SKC,0.00,VWS V14.01,2013-10-30 07:40:00,
2013-10-30 02:45:00,73.4,71.3,29.95,SE,130,0.0,0.0,93,0.00,,SKC,0.00,VWS V14.01,2013-10-30 07:45:00,
2013-10-30 02:50:00,73.3,71.2,29.95,SE,129,0.0,1.0,93,0.00,,SKC,0.00,VWS V14.01,2013-10-30 07:50:00,
2013-10-30 02:55:00,73.4,71.3,29.95,SE,129,0.0,0.0,93,0.00,,SKC,0.00,VWS V14.01,2013-10-30 07:55:00,
2013-10-30 03:00:00,73.4,71.6,29.95,SE,129,0.0,1.0,94,0.00,,SKC,0.00,VWS V14.01,2013-10-30 08:00:00,
2013-10-30 03:05:00,73.4,71.6,29.95,SE,129,0.0,0.0,94,0.00,,SKC,0.00,VWS V14.01,2013-10-30 08:05:00,
2013-10-30 03:10:00,73.4,71.6,29.94,SE,129,0.0,1.0,94,0.00,,SKC,0.00,VWS V14.01,2013-10-30 08:10:00,
2013-10-30 03:15:00,73.5,71.7,29.94,SE,129,0.0,0.0,94,0.00,,SKC,0.00,VWS V14.01,2013-10-30 08:15:00,
2013-10-30 03:20:00,73.5,71.7,29.94,SE,129,0.0,1.0,94,0.00,,SKC,0.00,VWS V14.01,2013-10-30 08:20:00,
2013-10-30 03:25:00,73.6,71.8,29.94,SE,129,0.0,0.0,94,0.00,,SKC,0.00,VWS V14.01,2013-10-30 08:25:00,
2013-10-30 03:30:00,73.6,71.8,29.94,SE,129,0.0,1.0,94,0.00,,SKC,0.00,VWS V14.01,2013-10-30 08:30:00,
2013-10-30 03:35:00,73.7,71.9,29.94,SE,129,0.0,0.0,94,0.00,,SKC,0.00,VWS V14.01,2013-10-30 08:35:00,
2013-10-30 03:40:00,73.7,71.9,29.93,SE,130,1.0,1.0,94,0.00,,SKC,0.00,VWS V14.01,2013-10-30 08:40:00,
2013-10-30 03:45:00,73.8,72.0,29.93,SE,130,0.0,0.0,94,0.00,,SKC,0.00,VWS V14.01,2013-10-30 08:45:00,
2013-10-30 03:50:00,73.9,72.1,29.93,SE,130,0.0,1.0,94,0.00,,SKC,0.00,VWS V14.01,2013-10-30 08:50:00,
2013-10-30 03:55:00,73.9,72.1,29.93,SE,130,0.0,0.0,94,0.00,,SKC,0.00,VWS V14.01,2013-10-30 08:55:00,
2013-10-30 04:00:00,74.0,72.2,29.93,SE,130,0.0,3.0,94,0.00,,SKC,0.00,VWS V14.01,2013-10-30 09:00:00,
2013-10-30 04:05:00,74.1,72.3,29.93,SE,130,0.0,0.0,94,0.00,,SKC,0.00,VWS V14.01,2013-10-30 09:05:00,
2013-10-30 04:10:00,74.1,72.3,29.93,SE,130,0.0,1.0,94,0.00,,SKC,0.00,VWS V14.01,2013-10-30 09:10:00,
2013-10-30 04:15:00,74.1,72.3,29.93,SE,130,0.0,0.0,94,0.00,,SKC,0.00,VWS V14.01,2013-10-30 09:15:00,
2013-10-30 04:20:00,74.2,72.4,29.93,SE,133,0.0,2.0,94,0.00,,SKC,0.00,VWS V14.01,2013-10-30 09:20:00,
2013-10-30 04:25:00,74.2,72.4,29.93,SE,134,0.0,3.0,94,0.00,,SKC,0.00,VWS V14.01,2013-10-30 09:25:00,
2013-10-30 04:30:00,74.2,72.4,29.93,SE,134,0.0,3.0,94,0.00,,SKC,0.00,VWS V14.01,2013-10-30 09:30:00,
2013-10-30 04:35:00,74.2,72.4,29.92,SE,135,1.0,1.0,94,0.00,,SKC,0.00,VWS V14.01,2013-10-30 09:35:00,
2013-10-30 04:40:00,74.3,72.5,29.92,SE,136,0.0,4.0,94,0.00,,SKC,0.00,VWS V14.01,2013-10-30 09:40:00,
2013-10-30 04:45:00,74.3,72.5,29.92,SE,136,0.0,0.0,94,0.00,,SKC,0.00,VWS V14.01,2013-10-30 09:45:00,
2013-10-30 04:50:00,74.3,72.5,29.92,SE,130,0.0,3.0,94,0.00,,SKC,0.00,VWS V14.01,2013-10-30 09:50:00,
2013-10-30 04:55:00,74.3,72.5,29.92,SE,131,0.0,0.0,94,0.00,,SKC,0.00,VWS V14.01,2013-10-30 09:55:00,
2013-10-30 05:00:00,74.3,72.5,29.91,SE,131,0.0,2.0,94,0.00,,SKC,0.00,VWS V14.01,2013-10-30 10:00:00,
2013-10-30 05:05:00,74.3,72.5,29.91,SE,131,0.0,2.0,94,0.00,,SKC,0.00,VWS V14.01,2013-10-30 10:05:00,
2013-10-30 05:10:00,74.3,72.5,29.91,SE,131,0.0,2.0,94,0.01,,SKC,0.01,VWS V14.01,2013-10-30 10:10:00,
2013-10-30 05:15:00,74.2,72.4,29.90,SE,131,0.0,0.0,94,0.01,,SKC,0.01,VWS V14.01,2013-10-30 10:15:00,
2013-10-30 05:20:00,74.2,72.4,29.90,SE,130,0.0,2.0,94,0.01,,SKC,0.01,VWS V14.01,2013-10-30 10:20:00,
2013-10-30 05:25:00,74.2,72.4,29.90,SE,137,1.0,2.0,94,0.01,,SKC,0.01,VWS V14.01,2013-10-30 10:25:00,
2013-10-30 05:30:00,74.2,72.7,29.90,SE,136,0.0,3.0,95,0.01,,SKC,0.01,VWS V14.01,2013-10-30 10:30:00,
2013-10-30 05:35:00,74.2,72.7,29.91,SE,141,0.0,0.0,95,0.01,,SKC,0.01,VWS V14.01,2013-10-30 10:35:00,
2013-10-30 05:40:00,74.2,72.7,29.91,SSE,150,0.0,4.0,95,0.01,,SKC,0.01,VWS V14.01,2013-10-30 10:40:00,
2013-10-30 05:45:00,74.2,72.7,29.91,SSE,150,3.0,5.0,95,0.01,,SKC,0.01,VWS V14.01,2013-10-30 10:45:00,
2013-10-30 05:50:00,74.2,72.7,29.91,SSE,151,0.0,5.0,95,0.01,,SKC,0.01,VWS V14.01,2013-10-30 10:50:00,
2013-10-30 05:55:00,74.2,72.7,29.91,SSE,151,2.0,3.0,95,0.01,,SKC,0.01,VWS V14.01,2013-10-30 10:55:00,
2013-10-30 06:00:00,74.2,72.7,29.91,SSE,151,2.0,4.0,95,0.01,,SKC,0.01,VWS V14.01,2013-10-30 11:00:00,
2013-10-30 06:05:00,74.2,72.7,29.91,SSE,151,0.0,0.0,95,0.01,,SKC,0.01,VWS V14.01,2013-10-30 11:05:00,
2013-10-30 06:10:00,74.2,72.7,29.91,SSE,152,3.0,5.0,95,0.01,,SKC,0.01,VWS V14.01,2013-10-30 11:10:00,
2013-10-30 06:15:00,74.2,72.7,29.91,SSE,153,0.0,0.0,95,0.00,,SKC,0.01,VWS V14.01,2013-10-30 11:15:00,
2013-10-30 06:20:00,74.2,72.7,29.90,SSE,154,0.0,5.0,95,0.00,,SKC,0.01,VWS V14.01,2013-10-30 11:20:00,
2013-10-30 06:25:00,74.2,72.7,29.91,SSE,154,1.0,3.0,95,0.00,,SKC,0.01,VWS V14.01,2013-10-30 11:25:00,
2013-10-30 06:30:00,74.2,72.7,29.91,SSE,154,0.0,3.0,95,0.00,,SKC,0.01,VWS V14.01,2013-10-30 11:30:00,
2013-10-30 06:35:00,74.2,72.7,29.91,SSE,154,0.0,0.0,95,0.00,,SKC,0.01,VWS V14.01,2013-10-30 11:35:00,
2013-10-30 06:40:00,74.2,72.7,29.91,SSE,154,0.0,4.0,95,0.00,,SKC,0.01,VWS V14.01,2013-10-30 11:40:00,
2013-10-30 06:45:00,74.2,72.7,29.90,SSE,155,0.0,0.0,95,0.00,,SKC,0.01,VWS V14.01,2013-10-30 11:45:00,
2013-10-30 06:50:00,74.2,72.7,29.91,SSE,155,0.0,4.0,95,0.00,,SKC,0.01,VWS V14.01,2013-10-30 11:50:00,
2013-10-30 06:55:00,74.2,72.7,29.90,SSE,155,0.0,0.0,95,0.00,,SKC,0.01,VWS V14.01,2013-10-30 11:55:00,
2013-10-30 07:00:00,74.2,72.7,29.90,SSE,155,0.0,4.0,95,0.00,,SKC,0.01,VWS V14.01,2013-10-30 12:00:00,
2013-10-30 07:05:00,74.2,72.7,29.90,SSE,155,0.0,0.0,95,0.00,,SKC,0.01,VWS V14.01,2013-10-30 12:05:00,
2013-10-30 07:10:00,74.3,72.8,29.90,SSE,155,0.0,4.0,95,0.00,,SKC,0.01,VWS V14.01,2013-10-30 12:10:00,
2013-10-30 07:15:00,74.2,72.7,29.91,SSE,155,0.0,0.0,95,0.00,,SKC,0.01,VWS V14.01,2013-10-30 12:15:00,
2013-10-30 07:20:00,74.2,72.7,29.91,SSE,155,0.0,2.0,95,0.00,,SKC,0.01,VWS V14.01,2013-10-30 12:20:00,
2013-10-30 07:25:00,74.2,72.7,29.91,SSE,155,0.0,0.0,95,0.00,,SKC,0.01,VWS V14.01,2013-10-30 12:25:00,
2013-10-30 07:30:00,74.2,72.7,29.91,SSE,155,0.0,4.0,95,0.00,,SKC,0.01,VWS V14.01,2013-10-30 12:30:00,
2013-10-30 07:35:00,74.3,72.8,29.91,SSE,155,0.0,0.0,95,0.00,,SKC,0.01,VWS V14.01,2013-10-30 12:35:00,
2013-10-30 07:40:00,74.3,72.8,29.91,SSE,155,0.0,4.0,95,0.00,,SKC,0.01,VWS V14.01,2013-10-30 12:40:00,
2013-10-30 07:45:00,74.3,72.8,29.91,SSE,155,0.0,0.0,95,0.00,,SKC,0.01,VWS V14.01,2013-10-30 12:45:00,
2013-10-30 07:50:00,74.3,72.8,29.91,SSE,155,0.0,3.0,95,0.00,,SKC,0.01,VWS V14.01,2013-10-30 12:50:00,
2013-10-30 07:55:00,74.3,72.8,29.91,SSE,155,0.0,1.0,95,0.00,,SKC,0.01,VWS V14.01,2013-10-30 12:55:00,
2013-10-30 08:00:00,74.3,72.8,29.91,SSE,155,2.0,5.0,95,0.00,,SKC,0.01,VWS V14.01,2013-10-30 13:00:00,
2013-10-30 08:05:00,74.3,72.8,29.92,SSE,155,0.0,0.0,95,0.00,,SKC,0.01,VWS V14.01,2013-10-30 13:05:00,
2013-10-30 08:10:00,74.4,72.9,29.92,SSE,155,0.0,4.0,95,0.00,,SKC,0.01,VWS V14.01,2013-10-30 13:10:00,
2013-10-30 08:15:00,74.4,72.9,29.92,SSE,155,0.0,0.0,95,0.00,,SKC,0.01,VWS V14.01,2013-10-30 13:15:00,
2013-10-30 08:20:00,74.4,72.9,29.92,SSE,155,2.0,4.0,95,0.00,,SKC,0.01,VWS V14.01,2013-10-30 13:20:00,
2013-10-30 08:25:00,74.5,73.0,29.92,SSE,155,0.0,2.0,95,0.00,,SKC,0.01,VWS V14.01,2013-10-30 13:25:00,
2013-10-30 08:30:00,74.5,73.0,29.92,SSE,155,0.0,3.0,95,0.00,,SKC,0.01,VWS V14.01,2013-10-30 13:30:00,
2013-10-30 08:35:00,74.5,73.0,29.92,SSE,155,0.0,0.0,95,0.00,,SKC,0.01,VWS V14.01,2013-10-30 13:35:00,
2013-10-30 08:40:00,74.5,73.0,29.93,SSE,155,0.0,5.0,95,0.00,,SKC,0.01,VWS V14.01,2013-10-30 13:40:00,
2013-10-30 08:45:00,74.6,73.1,29.93,SSE,155,2.0,5.0,95,0.01,,SKC,0.02,VWS V14.01,2013-10-30 13:45:00,
2013-10-30 08:50:00,74.7,73.2,29.93,SSE,155,1.0,5.0,95,0.01,,SKC,0.02,VWS V14.01,2013-10-30 13:50:00,
2013-10-30 08:55:00,74.9,73.4,29.93,SSE,156,3.0,3.0,95,0.01,,SKC,0.02,VWS V14.01,2013-10-30 13:55:00,
2013-10-30 09:00:00,75.0,73.5,29.93,SSE,159,3.0,7.0,95,0.01,,SKC,0.02,VWS V14.01,2013-10-30 14:00:00,
2013-10-30 09:05:00,75.0,73.5,29.93,SSE,161,3.0,3.0,95,0.01,,SKC,0.02,VWS V14.01,2013-10-30 14:05:00,
2013-10-30 09:10:00,75.1,73.6,29.93,SSE,165,6.0,6.0,95,0.01,,SKC,0.02,VWS V14.01,2013-10-30 14:10:00,
2013-10-30 09:15:00,75.0,73.5,29.94,South,171,0.0,0.0,95,0.01,,SKC,0.02,VWS V14.01,2013-10-30 14:15:00,
2013-10-30 09:20:00,75.0,73.5,29.94,South,171,0.0,5.0,95,0.01,,SKC,0.02,VWS V14.01,2013-10-30 14:20:00,
2013-10-30 09:25:00,75.0,73.5,29.94,South,171,0.0,0.0,95,0.01,,SKC,0.02,VWS V14.01,2013-10-30 14:25:00,
2013-10-30 09:30:00,75.0,73.5,29.94,South,171,0.0,5.0,95,0.01,,SKC,0.02,VWS V14.01,2013-10-30 14:30:00,
2013-10-30 09:35:00,75.1,73.6,29.94,South,171,0.0,0.0,95,0.01,,SKC,0.02,VWS V14.01,2013-10-30 14:35:00,
2013-10-30 09:40:00,75.2,73.7,29.94,South,172,0.0,5.0,95,0.01,,SKC,0.02,VWS V14.01,2013-10-30 14:40:00,
2013-10-30 09:45:00,75.6,74.1,29.94,South,173,0.0,0.0,95,0.00,,SKC,0.02,VWS V14.01,2013-10-30 14:45:00,
2013-10-30 09:50:00,75.9,74.4,29.94,South,173,0.0,4.0,95,0.00,,SKC,0.02,VWS V14.01,2013-10-30 14:50:00,
2013-10-30 09:55:00,76.3,74.4,29.93,South,172,0.0,3.0,94,0.00,,SKC,0.02,VWS V14.01,2013-10-30 14:55:00,
2013-10-30 10:00:00,76.4,74.2,29.93,SSE,166,2.0,5.0,93,0.00,,SKC,0.02,VWS V14.01,2013-10-30 15:00:00,
2013-10-30 10:05:00,76.3,73.8,29.93,SSE,168,2.0,2.0,92,0.00,,SKC,0.02,VWS V14.01,2013-10-30 15:05:00,
2013-10-30 10:10:00,76.2,73.7,29.93,South,169,2.0,5.0,92,0.00,,SKC,0.02,VWS V14.01,2013-10-30 15:10:00,
2013-10-30 10:15:00,76.2,73.4,29.93,South,169,0.0,0.0,91,0.00,,SKC,0.02,VWS V14.01,2013-10-30 15:15:00,
2013-10-30 10:20:00,76.2,73.4,29.94,South,170,1.0,5.0,91,0.00,,SKC,0.02,VWS V14.01,2013-10-30 15:20:00,
2013-10-30 10:25:00,76.4,73.6,29.94,South,171,3.0,6.0,91,0.00,,SKC,0.02,VWS V14.01,2013-10-30 15:25:00,
2013-10-30 10:30:00,76.6,73.4,29.94,SSE,165,2.0,5.0,90,0.00,,SKC,0.02,VWS V14.01,2013-10-30 15:30:00,
2013-10-30 10:35:00,76.7,73.6,29.94,SSE,163,3.0,5.0,90,0.00,,SKC,0.02,VWS V14.01,2013-10-30 15:35:00,
2013-10-30 10:40:00,76.7,73.2,29.94,SSE,163,0.0,5.0,89,0.00,,SKC,0.02,VWS V14.01,2013-10-30 15:40:00,
2013-10-30 10:45:00,76.7,73.2,29.94,SSW,194,0.0,5.0,89,0.00,,SKC,0.02,VWS V14.01,2013-10-30 15:45:00,
2013-10-30 10:50:00,76.8,73.3,29.94,South,187,2.0,5.0,89,0.00,,SKC,0.02,VWS V14.01,2013-10-30 15:50:00,
2013-10-30 10:55:00,77.0,73.5,29.94,SSW,193,0.0,5.0,89,0.00,,SKC,0.02,VWS V14.01,2013-10-30 15:55:00,
2013-10-30 11:00:00,77.3,73.5,29.94,SSE,162,3.0,5.0,88,0.00,,SKC,0.02,VWS V14.01,2013-10-30 16:00:00,
2013-10-30 11:05:00,77.5,73.3,29.94,South,175,0.0,5.0,87,0.00,,SKC,0.02,VWS V14.01,2013-10-30 16:05:00,
2013-10-30 11:10:00,77.7,73.9,29.94,South,178,1.0,3.0,88,0.00,,SKC,0.02,VWS V14.01,2013-10-30 16:10:00,
2013-10-30 11:15:00,78.0,73.5,29.94,SSW,205,1.0,5.0,86,0.00,,SKC,0.02,VWS V14.01,2013-10-30 16:15:00,
2013-10-30 11:20:00,78.5,74.3,29.94,South,172,0.0,3.0,87,0.00,,SKC,0.02,VWS V14.01,2013-10-30 16:20:00,
2013-10-30 11:25:00,79.1,74.2,29.93,South,172,3.0,3.0,85,0.00,,SKC,0.02,VWS V14.01,2013-10-30 16:25:00,
2013-10-30 11:30:00,79.2,73.9,29.94,SSW,202,0.0,3.0,84,0.00,,SKC,0.02,VWS V14.01,2013-10-30 16:30:00,
2013-10-30 11:35:00,79.3,74.1,29.93,SSW,204,1.0,3.0,84,0.00,,SKC,0.02,VWS V14.01,2013-10-30 16:35:00,
2013-10-30 11:40:00,79.4,73.8,29.93,SSW,208,0.0,3.0,83,0.00,,SKC,0.02,VWS V14.01,2013-10-30 16:40:00,
2013-10-30 11:45:00,79.6,73.6,29.93,SSW,213,0.0,3.0,82,0.00,,SKC,0.02,VWS V14.01,2013-10-30 16:45:00,
2013-10-30 11:50:00,79.6,73.6,29.93,SSW,201,4.0,4.0,82,0.00,,SKC,0.02,VWS V14.01,2013-10-30 16:50:00,
2013-10-30 11:55:00,79.6,73.6,29.92,SSW,202,2.0,4.0,82,0.00,,SKC,0.02,VWS V14.01,2013-10-30 16:55:00,
2013-10-30 12:00:00,79.9,73.9,29.92,SSW,193,0.0,3.0,82,0.00,,SKC,0.02,VWS V14.01,2013-10-30 17:00:00,
2013-10-30 12:05:00,80.2,74.2,29.92,South,188,0.0,3.0,82,0.00,,SKC,0.02,VWS V14.01,2013-10-30 17:05:00,
2013-10-30 12:10:00,80.4,74.0,29.92,South,186,1.0,3.0,81,0.00,,SKC,0.02,VWS V14.01,2013-10-30 17:10:00,
2013-10-30 12:15:00,80.7,74.0,29.92,SSW,204,0.0,3.0,80,0.00,,SKC,0.02,VWS V14.01,2013-10-30 17:15:00,
2013-10-30 12:20:00,81.0,74.2,29.92,South,187,1.0,2.0,80,0.00,,SKC,0.02,VWS V14.01,2013-10-30 17:20:00,
2013-10-30 12:25:00,81.7,74.6,29.91,SSE,161,0.0,2.0,79,0.00,,SKC,0.02,VWS V14.01,2013-10-30 17:25:00,
2013-10-30 12:30:00,82.1,74.2,29.91,South,178,0.0,1.0,77,0.00,,SKC,0.02,VWS V14.01,2013-10-30 17:30:00,
2013-10-30 12:35:00,82.1,74.2,29.90,SSW,201,0.0,1.0,77,0.00,,SKC,0.02,VWS V14.01,2013-10-30 17:35:00,
2013-10-30 12:40:00,82.1,74.2,29.91,SSW,202,0.0,1.0,77,0.00,,SKC,0.02,VWS V14.01,2013-10-30 17:40:00,
2013-10-30 12:45:00,82.0,74.1,29.90,SSW,198,2.0,2.0,77,0.00,,SKC,0.02,VWS V14.01,2013-10-30 17:45:00,
2013-10-30 12:50:00,81.9,74.0,29.90,SSW,207,0.0,2.0,77,0.00,,SKC,0.02,VWS V14.01,2013-10-30 17:50:00,
2013-10-30 12:55:00,82.1,74.6,29.90,SSW,204,0.0,2.0,78,0.00,,SKC,0.02,VWS V14.01,2013-10-30 17:55:00,
2013-10-30 13:00:00,82.4,74.1,29.89,SSW,205,0.0,2.0,76,0.00,,SKC,0.02,VWS V14.01,2013-10-30 18:00:00,
2013-10-30 13:05:00,82.6,74.3,29.89,SSW,201,0.0,2.0,76,0.00,,SKC,0.02,VWS V14.01,2013-10-30 18:05:00,
2013-10-30 13:10:00,82.6,74.3,29.88,SSW,206,0.0,1.0,76,0.00,,SKC,0.02,VWS V14.01,2013-10-30 18:10:00,
2013-10-30 13:15:00,82.7,74.0,29.89,SSE,159,0.0,2.0,75,0.00,,SKC,0.02,VWS V14.01,2013-10-30 18:15:00,
2013-10-30 13:20:00,82.5,73.4,29.88,South,173,0.0,1.0,74,0.00,,SKC,0.02,VWS V14.01,2013-10-30 18:20:00,
2013-10-30 13:25:00,82.7,73.6,29.88,South,169,0.0,1.0,74,0.00,,SKC,0.02,VWS V14.01,2013-10-30 18:25:00,
2013-10-30 13:30:00,82.9,73.4,29.87,SSE,161,0.0,1.0,73,0.00,,SKC,0.02,VWS V14.01,2013-10-30 18:30:00,
2013-10-30 13:35:00,82.9,73.4,29.87,South,187,1.0,1.0,73,0.00,,SKC,0.02,VWS V14.01,2013-10-30 18:35:00,
2013-10-30 13:40:00,82.9,73.4,29.86,SSW,207,0.0,1.0,73,0.00,,SKC,0.02,VWS V14.01,2013-10-30 18:40:00,
2013-10-30 13:45:00,83.6,74.0,29.86,South,182,0.0,1.0,73,0.00,,SKC,0.02,VWS V14.01,2013-10-30 18:45:00,
2013-10-30 13:50:00,84.6,73.7,29.86,SSE,148,1.0,1.0,70,0.00,,SKC,0.02,VWS V14.01,2013-10-30 18:50:00,
2013-10-30 13:55:00,84.8,73.5,29.86,SW,216,0.0,1.0,69,0.00,,SKC,0.02,VWS V14.01,2013-10-30 18:55:00,
2013-10-30 14:00:00,84.7,73.4,29.85,SSW,209,0.0,1.0,69,0.00,,SKC,0.02,VWS V14.01,2013-10-30 19:00:00,
2013-10-30 14:05:00,84.5,73.7,29.85,South,177,0.0,1.0,70,0.00,,SKC,0.02,VWS V14.01,2013-10-30 19:05:00,
2013-10-30 14:10:00,84.1,73.3,29.85,SSE,161,0.0,1.0,70,0.00,,SKC,0.02,VWS V14.01,2013-10-30 19:10:00,
2013-10-30 14:15:00,84.0,73.6,29.85,SW,215,0.0,1.0,71,0.00,,SKC,0.02,VWS V14.01,2013-10-30 19:15:00,
2013-10-30 14:20:00,84.0,73.6,29.85,SSW,209,0.0,1.0,71,0.00,,SKC,0.02,VWS V14.01,2013-10-30 19:20:00,
2013-10-30 14:25:00,84.0,73.6,29.84,South,169,0.0,1.0,71,0.00,,SKC,0.02,VWS V14.01,2013-10-30 19:25:00,
2013-10-30 14:30:00,84.0,73.6,29.84,SW,216,0.0,2.0,71,0.00,,SKC,0.02,VWS V14.01,2013-10-30 19:30:00,
2013-10-30 14:35:00,83.9,73.5,29.84,SSW,206,0.0,2.0,71,0.00,,SKC,0.02,VWS V14.01,2013-10-30 19:35:00,
2013-10-30 14:40:00,83.7,73.3,29.83,SSW,213,0.0,1.0,71,0.00,,SKC,0.02,VWS V14.01,2013-10-30 19:40:00,
2013-10-30 14:45:00,83.7,73.7,29.83,SSW,209,0.0,1.0,72,0.00,,SKC,0.02,VWS V14.01,2013-10-30 19:45:00,
2013-10-30 14:50:00,83.9,73.9,29.83,SSW,211,0.0,1.0,72,0.00,,SKC,0.02,VWS V14.01,2013-10-30 19:50:00,
2013-10-30 14:55:00,83.8,73.8,29.82,SSW,211,0.0,1.0,72,0.00,,SKC,0.02,VWS V14.01,2013-10-30 19:55:00,
2013-10-30 15:00:00,83.8,73.8,29.82,SSW,192,0.0,1.0,72,0.00,,SKC,0.02,VWS V14.01,2013-10-30 20:00:00,
2013-10-30 15:05:00,83.7,73.3,29.82,SSE,159,0.0,0.0,71,0.00,,SKC,0.02,VWS V14.01,2013-10-30 20:05:00,
2013-10-30 15:10:00,83.6,73.6,29.82,SSE,165,0.0,1.0,72,0.00,,SKC,0.02,VWS V14.01,2013-10-30 20:10:00,
2013-10-30 15:15:00,83.6,73.6,29.82,SSE,164,0.0,0.0,72,0.00,,SKC,0.02,VWS V14.01,2013-10-30 20:15:00,
2013-10-30 15:20:00,83.6,73.6,29.82,SSE,165,0.0,1.0,72,0.00,,SKC,0.02,VWS V14.01,2013-10-30 20:20:00,
2013-10-30 15:25:00,83.7,73.7,29.81,SSE,166,0.0,0.0,72,0.00,,SKC,0.02,VWS V14.01,2013-10-30 20:25:00,
2013-10-30 15:30:00,83.7,73.3,29.81,SSE,159,0.0,1.0,71,0.00,,SKC,0.02,VWS V14.01,2013-10-30 20:30:00,
2013-10-30 15:35:00,83.6,73.2,29.81,SSW,205,0.0,0.0,71,0.00,,SKC,0.02,VWS V14.01,2013-10-30 20:35:00,
2013-10-30 15:40:00,83.7,73.3,29.81,SSW,205,0.0,1.0,71,0.00,,SKC,0.02,VWS V14.01,2013-10-30 20:40:00,
2013-10-30 15:45:00,83.7,73.7,29.81,SSW,205,0.0,0.0,72,0.00,,SKC,0.02,VWS V14.01,2013-10-30 20:45:00,
2013-10-30 15:50:00,83.6,73.6,29.80,SSW,205,0.0,1.0,72,0.00,,SKC,0.02,VWS V14.01,2013-10-30 20:50:00,
2013-10-30 15:55:00,83.6,73.6,29.81,South,186,0.0,0.0,72,0.00,,SKC,0.02,VWS V14.01,2013-10-30 20:55:00,
2013-10-30 16:00:00,83.4,73.4,29.81,South,175,0.0,1.0,72,0.00,,SKC,0.02,VWS V14.01,2013-10-30 21:00:00,
2013-10-30 16:05:00,83.3,73.3,29.81,South,186,0.0,1.0,72,0.00,,SKC,0.02,VWS V14.01,2013-10-30 21:05:00,
2013-10-30 16:10:00,83.3,73.8,29.80,South,175,0.0,1.0,73,0.00,,SKC,0.02,VWS V14.01,2013-10-30 21:10:00,
2013-10-30 16:15:00,83.3,73.8,29.80,South,175,0.0,1.0,73,0.00,,SKC,0.02,VWS V14.01,2013-10-30 21:15:00,
2013-10-30 16:20:00,83.3,73.3,29.79,South,175,0.0,1.0,72,0.00,,SKC,0.02,VWS V14.01,2013-10-30 21:20:00,
2013-10-30 16:25:00,83.3,73.3,29.80,South,178,0.0,1.0,72,0.00,,SKC,0.02,VWS V14.01,2013-10-30 21:25:00,
2013-10-30 16:30:00,83.4,73.8,29.79,South,178,0.0,1.0,73,0.00,,SKC,0.02,VWS V14.01,2013-10-30 21:30:00,
2013-10-30 16:35:00,83.5,73.5,29.79,South,173,0.0,1.0,72,0.00,,SKC,0.02,VWS V14.01,2013-10-30 21:35:00,
2013-10-30 16:40:00,83.8,74.6,29.79,South,173,0.0,1.0,74,0.00,,SKC,0.02,VWS V14.01,2013-10-30 21:40:00,
2013-10-30 16:45:00,83.8,75.8,29.79,South,172,0.0,1.0,77,0.02,,SKC,0.04,VWS V14.01,2013-10-30 21:45:00,
2013-10-30 16:50:00,83.3,76.1,29.79,South,172,0.0,1.0,79,0.02,,SKC,0.04,VWS V14.01,2013-10-30 21:50:00,
2013-10-30 16:55:00,82.8,75.6,29.79,South,172,0.0,1.0,79,0.02,,SKC,0.04,VWS V14.01,2013-10-30 21:55:00,
2013-10-30 17:00:00,82.3,75.5,29.79,South,172,0.0,1.0,80,0.02,,SKC,0.04,VWS V14.01,2013-10-30 22:00:00,
2013-10-30 17:05:00,82.3,75.9,29.79,South,172,0.0,1.0,81,0.02,,SKC,0.04,VWS V14.01,2013-10-30 22:05:00,
2013-10-30 17:10:00,82.3,75.5,29.78,South,172,0.0,0.0,80,0.02,,SKC,0.04,VWS V14.01,2013-10-30 22:10:00,
2013-10-30 17:15:00,82.2,75.4,29.78,South,172,0.0,0.0,80,0.02,,SKC,0.04,VWS V14.01,2013-10-30 22:15:00,
2013-10-30 17:20:00,82.3,76.3,29.78,South,172,0.0,0.0,82,0.02,,SKC,0.04,VWS V14.01,2013-10-30 22:20:00,
2013-10-30 17:25:00,82.6,75.8,29.78,South,173,0.0,0.0,80,0.02,,SKC,0.04,VWS V14.01,2013-10-30 22:25:00,
2013-10-30 17:30:00,82.5,74.9,29.78,South,173,0.0,0.0,78,0.02,,SKC,0.04,VWS V14.01,2013-10-30 22:30:00,
2013-10-30 17:35:00,82.3,74.8,29.78,South,173,0.0,1.0,78,0.02,,SKC,0.04,VWS V14.01,2013-10-30 22:35:00,
2013-10-30 17:40:00,82.2,74.7,29.77,South,173,0.0,0.0,78,0.02,,SKC,0.04,VWS V14.01,2013-10-30 22:40:00,
2013-10-30 17:45:00,82.1,74.2,29.77,South,172,0.0,1.0,77,0.02,,SKC,0.04,VWS V14.01,2013-10-30 22:45:00,
2013-10-30 17:50:00,82.1,74.6,29.78,South,172,0.0,0.0,78,0.00,,SKC,0.04,VWS V14.01,2013-10-30 22:50:00,
2013-10-30 17:55:00,82.1,73.8,29.77,South,172,0.0,1.0,76,0.00,,SKC,0.04,VWS V14.01,2013-10-30 22:55:00,
2013-10-30 18:00:00,82.0,73.7,29.78,South,173,0.0,1.0,76,0.00,,SKC,0.04,VWS V14.01,2013-10-30 23:00:00,
2013-10-30 18:05:00,81.9,73.6,29.77,South,173,0.0,1.0,76,0.00,,SKC,0.04,VWS V14.01,2013-10-30 23:05:00,
2013-10-30 18:10:00,81.8,73.5,29.77,South,173,0.0,1.0,76,0.00,,SKC,0.04,VWS V14.01,2013-10-30 23:10:00,
2013-10-30 18:15:00,81.8,73.5,29.77,South,173,0.0,1.0,76,0.00,,SKC,0.04,VWS V14.01,2013-10-30 23:15:00,
2013-10-30 18:20:00,81.8,73.5,29.77,South,173,0.0,0.0,76,0.00,,SKC,0.04,VWS V14.01,2013-10-30 23:20:00,
2013-10-30 18:25:00,81.7,73.4,29.77,South,172,0.0,0.0,76,0.00,,SKC,0.04,VWS V14.01,2013-10-30 23:25:00,
2013-10-30 18:30:00,81.6,73.7,29.77,South,172,0.0,0.0,77,0.00,,SKC,0.04,VWS V14.01,2013-10-30 23:30:00,
2013-10-30 18:35:00,81.5,74.0,29.77,South,173,0.0,0.0,78,0.00,,SKC,0.04,VWS V14.01,2013-10-30 23:35:00,
2013-10-30 18:40:00,81.4,74.3,29.77,South,173,0.0,0.0,79,0.00,,SKC,0.04,VWS V14.01,2013-10-30 23:40:00,
2013-10-30 18:45:00,81.1,74.7,29.78,South,173,0.0,0.0,81,0.01,,SKC,0.05,VWS V14.01,2013-10-30 23:45:00,
2013-10-30 18:50:00,80.7,74.3,29.77,South,172,0.0,1.0,81,0.01,,SKC,0.05,VWS V14.01,2013-10-30 23:50:00,
2013-10-30 18:55:00,80.3,74.3,29.78,South,172,0.0,1.0,82,0.01,,SKC,0.05,VWS V14.01,2013-10-30 23:55:00,
2013-10-30 19:00:00,80.0,74.4,29.78,South,173,0.0,0.0,83,0.01,,SKC,0.05,VWS V14.01,2013-10-31 00:00:00,
2013-10-30 19:05:00,79.6,74.3,29.77,South,172,0.0,0.0,84,0.02,,SKC,0.06,VWS V14.01,2013-10-31 00:05:00,
2013-10-30 19:10:00,79.2,74.3,29.77,South,172,0.0,0.0,85,0.02,,SKC,0.06,VWS V14.01,2013-10-31 00:10:00,
2013-10-30 19:15:00,78.9,74.4,29.78,South,172,0.0,0.0,86,0.02,,SKC,0.06,VWS V14.01,2013-10-31 00:15:00,
2013-10-30 19:20:00,78.5,74.0,29.78,South,172,0.0,1.0,86,0.02,,SKC,0.06,VWS V14.01,2013-10-31 00:20:00,
2013-10-30 19:25:00,78.4,74.2,29.78,South,172,0.0,3.0,87,0.02,,SKC,0.06,VWS V14.01,2013-10-31 00:25:00,
2013-10-30 19:30:00,78.3,74.1,29.78,South,172,0.0,0.0,87,0.02,,SKC,0.06,VWS V14.01,2013-10-31 00:30:00,
2013-10-30 19:35:00,78.1,74.3,29.78,South,172,0.0,0.0,88,0.02,,SKC,0.06,VWS V14.01,2013-10-31 00:35:00,
2013-10-30 19:40:00,78.0,74.2,29.78,South,172,0.0,1.0,88,0.02,,SKC,0.06,VWS V14.01,2013-10-31 00:40:00,
2013-10-30 19:45:00,77.9,74.1,29.78,South,171,0.0,3.0,88,0.02,,SKC,0.06,VWS V14.01,2013-10-31 00:45:00,
2013-10-30 19:50:00,77.9,74.4,29.79,South,171,0.0,1.0,89,0.01,,SKC,0.06,VWS V14.01,2013-10-31 00:50:00,
2013-10-30 19:55:00,77.8,74.3,29.78,South,171,1.0,2.0,89,0.01,,SKC,0.06,VWS V14.01,2013-10-31 00:55:00,
2013-10-30 20:00:00,77.7,74.2,29.78,South,171,0.0,1.0,89,0.01,,SKC,0.06,VWS V14.01,2013-10-31 01:00:00,
2013-10-30 20:05:00,77.6,74.1,29.78,SSE,165,1.0,2.0,89,0.01,,SKC,0.06,VWS V14.01,2013-10-31 01:05:00,
2013-10-30 20:10:00,77.5,74.0,29.78,SSE,165,1.0,3.0,89,0.00,,SKC,0.06,VWS V14.01,2013-10-31 01:10:00,
2013-10-30 20:15:00,77.4,73.9,29.78,SSE,164,0.0,3.0,89,0.00,,SKC,0.06,VWS V14.01,2013-10-31 01:15:00,
2013-10-30 20:20:00,77.2,73.7,29.78,SSE,164,0.0,3.0,89,0.00,,SKC,0.06,VWS V14.01,2013-10-31 01:20:00,
2013-10-30 20:25:00,77.1,73.6,29.78,SSE,163,0.0,3.0,89,0.00,,SKC,0.06,VWS V14.01,2013-10-31 01:25:00,
2013-10-30 20:30:00,76.9,73.4,29.78,SSE,162,1.0,3.0,89,0.00,,SKC,0.06,VWS V14.01,2013-10-31 01:30:00,
2013-10-30 20:35:00,76.8,73.3,29.77,SSE,157,2.0,3.0,89,0.00,,SKC,0.06,VWS V14.01,2013-10-31 01:35:00,
2013-10-30 20:40:00,76.8,73.3,29.77,SSE,168,0.0,5.0,89,0.00,,SKC,0.06,VWS V14.01,2013-10-31 01:40:00,
2013-10-30 20:45:00,76.7,73.2,29.77,SSE,166,1.0,5.0,89,0.00,,SKC,0.06,VWS V14.01,2013-10-31 01:45:00,
2013-10-30 20:50:00,76.7,73.2,29.77,SSE,161,0.0,5.0,89,0.00,,SKC,0.06,VWS V14.01,2013-10-31 01:50:00,
2013-10-30 20:55:00,76.7,73.2,29.77,SSE,164,0.0,5.0,89,0.00,,SKC,0.06,VWS V14.01,2013-10-31 01:55:00,
2013-10-30 21:00:00,76.7,73.2,29.77,SSE,162,0.0,4.0,89,0.00,,SKC,0.06,VWS V14.01,2013-10-31 02:00:00,
2013-10-30 21:05:00,76.6,73.1,29.76,SSE,163,1.0,4.0,89,0.00,,SKC,0.06,VWS V14.01,2013-10-31 02:05:00,
2013-10-30 21:10:00,76.6,73.1,29.76,SSE,162,0.0,5.0,89,0.00,,SKC,0.06,VWS V14.01,2013-10-31 02:10:00,
2013-10-30 21:15:00,76.6,73.1,29.76,SSE,161,1.0,5.0,89,0.00,,SKC,0.06,VWS V14.01,2013-10-31 02:15:00,
2013-10-30 21:20:00,76.6,73.1,29.77,SSE,163,2.0,4.0,89,0.00,,SKC,0.06,VWS V14.01,2013-10-31 02:20:00,
2013-10-30 21:25:00,76.5,73.0,29.77,SSE,163,2.0,6.0,89,0.00,,SKC,0.06,VWS V14.01,2013-10-31 02:25:00,
2013-10-30 21:30:00,76.6,73.1,29.78,SSE,159,0.0,4.0,89,0.00,,SKC,0.06,VWS V14.01,2013-10-31 02:30:00,
2013-10-30 21:35:00,76.6,73.1,29.78,SSE,167,0.0,5.0,89,0.00,,SKC,0.06,VWS V14.01,2013-10-31 02:35:00,
2013-10-30 21:40:00,76.6,73.1,29.78,SSE,162,3.0,4.0,89,0.00,,SKC,0.06,VWS V14.01,2013-10-31 02:40:00,
2013-10-30 21:45:00,76.6,73.1,29.78,South,170,0.0,4.0,89,0.00,,SKC,0.06,VWS V14.01,2013-10-31 02:45:00,
2013-10-30 21:50:00,76.6,73.1,29.78,SSE,167,0.0,4.0,89,0.00,,SKC,0.06,VWS V14.01,2013-10-31 02:50:00,
2013-10-30 21:55:00,76.5,73.0,29.79,SSE,165,1.0,4.0,89,0.00,,SKC,0.06,VWS V14.01,2013-10-31 02:55:00,
2013-10-30 22:00:00,76.5,73.0,29.78,SSE,160,0.0,3.0,89,0.00,,SKC,0.06,VWS V14.01,2013-10-31 03:00:00,
2013-10-30 22:05:00,76.5,73.0,29.79,SSE,160,0.0,3.0,89,0.00,,SKC,0.06,VWS V14.01,2013-10-31 03:05:00,
2013-10-30 22:10:00,76.4,72.9,29.78,SE,136,1.0,5.0,89,0.00,,SKC,0.06,VWS V14.01,2013-10-31 03:10:00,
2013-10-30 22:15:00,76.4,72.9,29.78,SSE,155,0.0,5.0,89,0.00,,SKC,0.06,VWS V14.01,2013-10-31 03:15:00,
2013-10-30 22:20:00,76.3,72.8,29.78,SSE,155,0.0,3.0,89,0.00,,SKC,0.06,VWS V14.01,2013-10-31 03:20:00,
2013-10-30 22:25:00,76.3,73.2,29.78,SSE,157,0.0,4.0,90,0.00,,SKC,0.06,VWS V14.01,2013-10-31 03:25:00,
2013-10-30 22:30:00,76.2,73.1,29.78,SSE,157,1.0,2.0,90,0.00,,SKC,0.06,VWS V14.01,2013-10-31 03:30:00,
2013-10-30 22:35:00,76.2,73.1,29.78,SSE,164,1.0,5.0,90,0.00,,SKC,0.06,VWS V14.01,2013-10-31 03:35:00,
2013-10-30 22:40:00,76.1,73.0,29.77,SSE,154,0.0,3.0,90,0.00,,SKC,0.06,VWS V14.01,2013-10-31 03:40:00,
2013-10-30 22:45:00,76.0,72.9,29.77,South,171,3.0,4.0,90,0.00,,SKC,0.06,VWS V14.01,2013-10-31 03:45:00,
2013-10-30 22:50:00,76.0,72.9,29.77,SSE,162,1.0,5.0,90,0.00,,SKC,0.06,VWS V14.01,2013-10-31 03:50:00,
2013-10-30 22:55:00,76.0,72.9,29.77,SSE,160,1.0,5.0,90,0.00,,SKC,0.06,VWS V14.01,2013-10-31 03:55:00,
2013-10-30 23:00:00,75.9,72.8,29.77,South,170,0.0,6.0,90,0.00,,SKC,0.06,VWS V14.01,2013-10-31 04:00:00,
2013-10-30 23:01:00,75.9,72.8,29.77,SSE,163,4.0,6.0,90,0.00,,SKC,0.06,VWS V14.01,2013-10-31 04:01:00,
2013-10-30 23:06:00,75.8,72.7,29.77,SSE,159,3.0,5.0,90,0.00,,SKC,0.06,VWS V14.01,2013-10-31 04:06:00,
2013-10-30 23:10:00,75.8,72.7,29.77,SSE,159,0.0,6.0,90,0.00,,SKC,0.06,VWS V14.01,2013-10-31 04:10:00,
2013-10-30 23:11:00,75.8,72.7,29.76,SSE,167,0.0,6.0,90,0.00,,SKC,0.06,VWS V14.01,2013-10-31 04:11:00,
2013-10-30 23:16:00,75.8,73.0,29.76,SSE,167,5.0,5.0,91,0.00,,SKC,0.06,VWS V14.01,2013-10-31 04:16:00,
2013-10-30 23:20:00,75.8,73.0,29.76,SSE,163,4.0,6.0,91,0.00,,SKC,0.06,VWS V14.01,2013-10-31 04:20:00,
2013-10-30 23:21:00,75.7,72.9,29.76,SSE,166,0.0,5.0,91,0.00,,SKC,0.06,VWS V14.01,2013-10-31 04:21:00,
2013-10-30 23:26:00,75.8,73.0,29.76,SSE,163,0.0,4.0,91,0.00,,SKC,0.06,VWS V14.01,2013-10-31 04:26:00,
2013-10-30 23:30:00,75.8,73.0,29.76,SSE,164,2.0,5.0,91,0.00,,SKC,0.06,VWS V14.01,2013-10-31 04:30:00,
2013-10-30 23:31:00,75.8,73.0,29.76,SSE,153,0.0,7.0,91,0.00,,SKC,0.06,VWS V14.01,2013-10-31 04:31:00,
2013-10-30 23:36:00,75.8,73.0,29.76,SSE,163,0.0,5.0,91,0.00,,SKC,0.06,VWS V14.01,2013-10-31 04:36:00,
2013-10-30 23:40:00,75.8,73.0,29.76,SSW,194,1.0,7.0,91,0.00,,SKC,0.06,VWS V14.01,2013-10-31 04:40:00,
2013-10-30 23:41:00,75.8,73.0,29.76,South,171,1.0,5.0,91,0.00,,SKC,0.06,VWS V14.01,2013-10-31 04:41:00,
2013-10-30 23:46:00,75.8,73.0,29.76,South,182,0.0,2.0,91,0.00,,SKC,0.06,VWS V14.01,2013-10-31 04:46:00,
2013-10-30 23:50:00,75.8,73.0,29.76,South,181,2.0,5.0,91,0.00,,SKC,0.06,VWS V14.01,2013-10-31 04:50:00,
2013-10-30 23:51:00,75.9,73.1,29.76,South,182,2.0,5.0,91,0.00,,SKC,0.06,VWS V14.01,2013-10-31 04:51:00,
2013-10-30 23:56:00,75.9,73.1,29.76,South,184,0.0,4.0,91,0.00,,SKC,0.00,VWS V14.01,2013-10-31 04:56:00,